sat.trackr.live / text

‹ back to catalog

STARLINK-35688

NORAD 67019 · 2025-293S

PAYLOAD ACTIVE UNKNOWN

§ Identity

Operator
Country
US
Launch date
2025-12-10
Launch site
AFWTR
Launch vehicle
Mass (kg)
RCS (m²)

Purposes: comms

External: N2YO · Heavens-Above · Gunter

§ Orbital elements

Epoch: 2026-05-24T17:38:01.119552Z

Period
96.11 min
Inclination
70.0007°
Eccentricity
0.0003514
Mean motion
14.98335138 rev/d
Perigee alt
569.6 km
Apogee alt
574.5 km
Semi-major
6,950.2 km
B*
3.3557e-4
RAAN
262.9153°
Arg perigee
267.8370°
Mean anomaly
92.2387°
Rev number
2,627

§ Raw data

STARLINK-356881 67019U 25293S   26144.73473518  .00003914  00000+0  33557-3 0  99912 67019  70.0007 262.9153 0003514 267.8370  92.2387 14.98335138 26276

JSON: /api/v1/satellites/67019 · /tle

For live sub-satellite position, see the globe view (requires WebGL).

§ Visibility from observer

Set your observer location to see the next 7 days of passes ≥ 10°. The values pass through the URL so the page stays shareable.

No JS? Fill the form by hand. The geolocation button needs JavaScript.